Flag for Germany Weather past 2 weeks in Lahr, Baden-Württemberg, Germany

Now
74 °F

Overcast.


Feels Like: 74 °F
Forecast: 59 / 80 °F
Wind: 6 mph from Northeast

Location: Lahr

Current Time: Jul 22, 2014 at 5:51:20 PM

Latest Report: Jul 22, 2014 at 5:00 PM


Visibility: 13 mi

Pressure: 29.94 "Hg

Humidity: 83%

Dew point: 69 °F

Location of LahrLocation

Historic Weather in Lahr — Graph

°F

Lahr temperature yesterday

Maximum temperature yesterday: 71 °F (at 5:00 PM)
Minimum temperature yesterday: 61 °F (at 8:00 AM)
Average temperature yesterday: 65 °F

Past Weeks' High & Low Weather Summary

 TemperatureHumidityPressure
High94 °F (Jul 18, 7:00 PM)100% (Jul 8, 4:00 AM)30.19 "Hg (Jul 8, 4:00 AM)
Low53 °F (Jul 10, 3:00 AM)29% (Jul 18, 6:00 PM)29.77 "Hg (Jul 10, 5:00 AM)
Average68 °F81%29.96 "Hg
* Reported Jul 7 5:00 PM — Jul 22 5:00 PM, Lahr, Weather by CustomWeather, © 2014

Note: Actual official high and low records may vary slightly from our data, if they occured in-between our weather recording intervals... More about our weather records

Advertising

Lahr weather history for previous 24 hours

 ConditionsComfort  
Time TempWeatherWind HumidityBarometerVisibility
5:00 PM
Jul 22
74 °FOvercast.6 mph83%29.94 "Hg12 mi
4:00 PM73 °FLight rain. Overcast.6 mph87%29.95 "Hg8 mi
3:00 PM72 °FLight rain. Overcast.3 mph89%29.95 "Hg9 mi
2:00 PM71 °FLow clouds.5 mph90%29.94 "Hg9 mi
1:00 PM71 °FLow clouds.6 mph91%29.94 "Hg6 mi
12:00 PM68 °FLight rain. Low clouds.3 mph100%29.93 "Hg2 mi
11:00 AM67 °FLight rain. Low clouds.3 mph100%29.92 "Hg2 mi
10:00 AM66 °FLight rain. Low clouds.5 mph98%29.92 "Hg2 mi
9:00 AM65 °FRain. Low clouds.6 mph100%29.90 "Hg2 mi
8:00 AM64 °FLight rain. Low clouds.3 mph100%29.90 "Hg2 mi
7:00 AM65 °FRain. Low clouds.1 mph96%29.91 "Hg2 mi
6:00 AM65 °FLight rain. Overcast.1 mph94%29.91 "Hg4 mi
5:00 AM65 °FOvercast.2 mph95%29.91 "Hg6 mi
4:00 AM66 °FOvercast.3 mph95%29.92 "Hg7 mi
3:00 AM65 °FOvercast.1 mph99%29.92 "Hg3 mi
2:00 AM66 °FDrizzle. Overcast.1 mph98%29.93 "Hg2 mi
1:00 AM66 °FLow clouds.1 mph96%29.93 "Hg8 mi
12:00 AM66 °FOvercast.1 mph99%29.94 "Hg4 mi
11:00 PM
Jul 21
66 °FLight rain. Low clouds.1 mph99%29.94 "Hg3 mi
10:00 PM66 °FOvercast.2 mph98%29.93 "Hg16 mi
9:00 PM66 °FLight rain. Overcast.2 mph97%29.91 "Hg10 mi
8:00 PM66 °FOvercast.2 mph98%29.91 "Hg19 mi
7:00 PM65 °FLight rain. Low clouds.2 mph99%29.91 "Hg7 mi
6:00 PM67 °FRain showers. Overcast.5 mph96%29.90 "Hg5 mi
5:00 PM71 °FOvercast.3 mph80%29.90 "Hg25 mi
Weather by CustomWeather, © 2014

See weather overviewHow to use our weather pages